Location: Ferintosh
(52.7647°N, 112.9692°W)
Time: 21:26:45
(UTC+00:00)

A-11 Canister half - Pass Details

Date: 25 May 2024
Orbit: 1524 x 1683 km, 47.3° (Epoch: 19 June)

Event Time Altitude Azimuth Distance (km) Brightness Sun altitude
Rises 08:01:06 0° 273° (W) 4,730 11.5 -15.8°
Reaches altitude 10° 08:04:11 10° 270° (W) 3,764 11.0 -15.8°
Maximum altitude 08:13:28 59° 195° (SSW) 1,819 9.0 -15.5°
Drops below altitude 10° 08:23:05 10° 119° (ESE) 3,883 10.9 -15.2°
Sets 08:26:19 0° 116° (ESE) 4,887 11.5 -15.1°
